Notices

What's New in latest Release from April 7th, 2021:

- Updated Glossary, including Speed of Maximum Gust, and Total Hourly Precipitation

- Updated national and regional climate services offices contacts and prices information

- Addition of station inventory lists for 1981-2010, 1971-2000, and 1961-1990 Normals.

If you haven't already, please take our survey and provide feedback about our website: https://eccc.sondage-survey.ca/f/LanguageSelection.aspx?s=442ca660-fcf1-47c0-95a9-59707d6fd709

Hourly Data Report for March 07, 2021

MIRAMICHI RCS
NEW BRUNSWICK
Current Station Operator: ECCC - MSC

47°00'34.000" N
65°27'54.000" W
33.00 m
8100989
71744
ACQ

Download Data

Hourly Data (March 2021)
Hourly Data Report for March 7, 2021
TIME
LST
Temp Definition
°C
Dew Point Definition
°C
Rel Hum Definition
%
Precip. Amount Definition
mm

Wind Dir Definition
10's deg

Wind Spd Definition
km/h
Visibility Definition
km
Stn Press Definition
kPa
Hmdx Definition


Wind Chill Definition


Weather Definition


00:00 -7.0 -13.8 59 LegendMM 25 17   100.80   -13 LegendNANA
01:00 -7.9 -14.2 61 LegendMM 25 14   100.87   -14 LegendNANA
02:00 -8.8 -14.6 63 LegendMM 24 13   100.95   -15 LegendNANA
03:00 -9.8 -14.9 66 LegendMM 23 15   100.95   -16 LegendNANA
04:00 -10.6 -15.4 68 LegendMM 26 9   101.02   -16 LegendNANA
05:00 -12.2 -15.8 74 LegendMM 24 13   101.09   -19 LegendNANA
06:00 -12.9 -16.4 74 LegendMM 26 9   101.19   -18 LegendNANA
07:00 -13.0 -17.2 70 LegendMM 26 9   101.26   -18 LegendNANA
08:00 -12.8 -17.2 70 LegendMM 23 11   101.38   -19 LegendNANA
09:00 -10.0 -16.4 59 LegendMM 24 15   101.45   -17 LegendNANA
10:00 -8.2 -15.7 55 LegendMM 26 13   101.47   -14 LegendNANA
11:00 -7.1 -14.7 55 LegendMM 23 15   101.49   -13 LegendNANA
12:00 -5.4 -13.5 53 LegendMM 23 18   101.47   -12 LegendNANA
13:00 -4.1 -13.3 49 LegendMM 23 18   101.46   -10 LegendNANA
14:00 -2.7 -13.5 43 LegendMM 24 18   101.43   -8 LegendNANA
15:00 -2.2 -13.3 42 LegendMM 24 16   101.43   -7 LegendNANA
16:00 -1.7 -13.0 42 LegendMM 24 18   101.43   -7 LegendNANA
17:00 -2.0 -13.0 43 LegendMM 25 18   101.48   -7 LegendNANA
18:00 -2.8 -13.1 45 LegendMM 26 15   101.56   -8 LegendNANA
19:00 -4.1 -13.4 48 LegendMM 30 9   101.67   -8 LegendNANA
20:00 -6.0 -13.9 54 LegendMM 28 6   101.73   -9 LegendNANA
21:00 -6.1 -14.5 52 LegendMM 30 10   101.78   -11 LegendNANA
22:00 -7.1 -14.6 55 LegendMM 30 8   101.84   -11 LegendNANA
23:00 -8.3 -14.9 59 LegendMM 27 8   101.81   -12 LegendNANA

Notes on Data Quality.

Legend

  • E = Estimated
  • M = Missing
  • NA = Not Available*
  • [empty] = Indicates an unobserved value
Date modified: